Live-Position
3D-Globus wird geladen...
Über Starlink 2329
Group: 3 satellites
Beschreibung wird geladen...
Nächste Überflüge
Passes for default location (London). Set your location on the main map for personalized predictions.
Höhenverlauf
Loading altitude history...
No altitude history available
Zweizeiliger Elementsatz
1 47873U 21021P 26124.34513926 .00000268 00000-0 20397-4 0 9994
2 47873 53.1599 356.6648 0001092 93.0326 267.0800 15.31692965284943
Epoch: 4. Mai 2026 •
Age: 8 hours
Aktueller Status
Höhe 471.9 km
Geschwindigkeit 7.63 km/s
Subsatellitenpunkt -1.52°S,
110.12°W
Startdatum 14. März 2021
Alter 5.1 years
Typ internet
Startgruppe
Falcon 9 •
Launch 21 •
21 satellites
Starlink 2280
47861
Starlink 2291 47862
Starlink 2326 47870
Starlink 2330 47874
Starlink 2336 47879
Starlink 2342 47883
Starlink 2343 47884
Starlink 2346 47887
Starlink 2354 47894
Starlink 2355 47895
Starlink 2356 47896
Starlink 2358 47898
Starlink 2361 47901
Starlink 2363 47903
Starlink 2364 47904
Starlink 2367 47907
Starlink 2370 47910
Starlink 2371 47911
Starlink 2378 47916
Starlink 2405 47919
Technische Details
Klassifizierung Payload
Masse 260.00 kg
Trockenmasse 248.00 kg
Gesamtmasse 260.00 kg
Länge 0.20 m
Durchmesser 2.80 m
Spannweite 9.00 m
Form Box + pan
Hersteller SPXS
Bus-Typ Starlink
Phasenstatus In Orbit
Besitzer/Staat SPXS/US
Most Searched
Loading...